#timestamp,LO_Frequency,Hit,StdDev 
1591909215.4,286046999.9,N
1591909235.2,286047000.6,N
1591909255.0,286047001.2,N
1591909255.9,286047001.2,N
1591909275.8,286046999.8,N
1591909295.6,286047001.0,N
1591909315.5,286047001.2,N
1591909335.3,286047000.8,N
1591909355.1,286047000.1,N
1591909375.9,286047002.7,N
1591909395.7,286047000.3,N
1591909415.5,286046999.9,N
1591909435.4,286046998.3,N
1591909455.2,286046999.0,N
1591909475.1,286047001.1,N
1591909476.0,286047001.1,N
1591909495.8,286046999.0,N
1591909515.6,286046996.8,N
1591909535.5,286047000.7,N
1591909555.3,286046998.7,N
1591909575.1,286046996.5,N
1591909595.9,286046999.6,N
1591909615.7,286046999.2,N
1591909635.6,286046996.8,N
1591909655.4,286046997.1,N
1591909675.2,286046996.5,N
1591909695.1,286046997.2,N
1591909696.0,286046997.2,N
1591909715.8,286046996.5,N
1591909735.7,286046998.2,N
1591909755.5,286046999.5,N
1591909775.3,286047001.0,N
1591909795.2,286047001.0,N
1591909815.0,286046998.4,N
1591909815.9,286046998.4,N
1591909835.8,286047001.1,N
1591909855.6,286046998.7,N
1591909875.4,286047001.0,N
1591909895.3,286047000.9,N
1591909915.1,286047001.1,N
1591909935.8,286047002.6,N
1591909955.7,286047002.2,N
1591909975.5,286047002.0,N
1591909995.4,286047002.5,N
1591910015.2,286047001.0,N
1591910035.0,286047000.5,N
1591910035.9,286047000.5,N
1591910055.8,286046999.3,N
1591910075.6,286046999.1,N
1591910095.5,286046998.6,N
1591910115.3,286047000.9,N
1591910135.1,286046996.6,N
1591910155.9,286047000.5,N
1591910175.7,286047000.5,N
1591910195.5,286047000.8,N
1591910215.4,286047002.3,N
1591910235.2,286047003.7,N
1591910255.1,286047003.3,N
1591910256.0,286047003.3,N
1591910275.8,286047001.6,N
1591910295.6,286047000.4,N
1591910315.5,286047002.3,N
1591910335.3,286047003.7,N
1591910355.2,286047003.0,N
1591910375.9,286047005.6,Y
1591910395.7,286047001.3,P
1591910415.6,286047001.9,P
1591910435.4,286047002.7,P
1591910455.3,286047002.7,Y
1591910475.1,286047001.2,P
1591910495.8,286046996.7,P
1591910515.7,286046997.0,N
1591910535.5,286046996.9,N
1591910555.4,286046998.3,N
1591910575.2,286046999.6,N
1591910595.0,286046996.7,N
1591910595.9,286046996.7,N
1591910615.8,286046997.3,N
1591910635.6,286046997.7,N
1591910655.8,286046997.7,N
1591910675.6,286046996.1,N
1591910695.5,286046994.6,Y
1591910715.3,286046997.6,P
1591910735.2,286046996.8,P
1591910755.9,286046996.9,P
1591910775.7,286046999.2,N
1591910795.6,286046997.1,Y
1591910815.4,286047001.2,P
1591910835.3,286046998.5,N
1591910855.1,286046998.7,N
1591910856.0,286046998.7,N
1591910875.8,286046998.4,N
1591910895.7,286046998.3,N
1591910915.5,286046999.4,N
1591910935.4,286046997.3,N
1591910955.2,286046997.0,N
1591910975.0,286046999.1,N
1591910975.9,286046999.1,N
1591910995.8,286046998.0,N
1591911015.6,286046998.7,N
1591911035.5,286046998.1,N
1591911055.3,286046998.6,N
1591911075.1,286047000.6,N
1591911095.9,286046998.4,N
1591911115.7,286047000.6,N
1591911135.5,286046998.6,N
1591911155.4,286046998.2,N
1591911175.2,286046998.6,N
1591911195.1,286046996.5,Y
1591911196.0,286046996.5,P
1591911215.8,286046996.9,N
1591911235.7,286046997.2,N
1591911255.5,286046998.7,N
1591911275.3,286046998.1,N
1591911295.2,286047000.5,N
1591911315.9,286047001.2,N
1591911335.7,286046998.1,N
1591911355.6,286046998.4,N
1591911375.4,286046996.8,N
1591911395.3,286046999.3,N
1591911415.1,286046998.9,N
1591911435.8,286046997.0,N
1591911455.7,286046999.6,N
1591911475.5,286046998.8,N
1591911495.4,286046998.3,N
1591911515.2,286046998.2,N
1591911535.0,286046998.5,N
1591911535.9,286046998.5,N
1591911555.8,286047001.2,N
1591911575.6,286047000.8,N
1591911595.4,286046998.7,N
1591911615.3,286046999.1,N
1591911635.1,286047000.1,N
1591911655.9,286047002.7,N
1591911675.7,286046999.9,N
1591911695.5,286047001.7,N
1591911715.4,286047002.0,N
1591911735.2,286047002.5,N
1591911755.0,286047002.7,N
1591911756.0,286047002.7,N
1591911775.8,286047000.1,N
1591911795.6,286047002.1,N
1591911815.5,286047001.9,N
1591911835.3,286047001.3,N
1591911855.1,286047001.6,N
1591911875.9,286047004.1,N
1591911895.7,286047003.7,N
1591911915.6,286047005.7,N
1591911935.4,286047005.5,N
1591911955.2,286047005.8,N
1591911975.1,286047004.0,N
1591911976.0,286047004.0,N
1591911995.8,286047001.5,N
1591912015.7,286047001.6,N
1591912035.5,286047003.9,N
1591912055.3,286047002.5,N
1591912075.2,286047003.0,N
1591912095.0,286047003.9,N
1591912095.9,286047003.9,N
1591912115.7,286047006.0,Y
1591912135.6,286047002.1,P
1591912155.4,286047000.6,P
1591912175.3,286046998.5,N
1591912195.1,286047000.4,N
1591912215.8,286047000.4,N
1591912235.7,286047000.5,N
1591912255.5,286047000.9,N
1591912275.4,286046999.8,N
1591912295.2,286046999.7,N
1591912315.0,286047000.2,N
1591912315.9,286047000.2,N
1591912335.8,286046999.7,N
1591912355.6,286047001.2,N
1591912375.4,286046998.1,N
1591912395.3,286046998.1,N
1591912415.1,286047000.1,N
1591912435.9,286047000.5,N
1591912455.7,286047002.5,N
1591912475.5,286047000.3,N
1591912495.4,286047002.2,N
1591912515.2,286047002.5,N
1591912535.0,286047002.2,N
1591912535.9,286047002.2,N
1591912555.8,286047002.6,N
1591912575.6,286047002.7,N
1591912595.5,286047001.8,N
1591912615.3,286047004.3,Y
1591912635.1,286047002.5,P
1591912655.9,286046999.8,N
1591912675.7,286047001.4,N
1591912695.6,286047004.4,Y
1591912715.4,286047002.8,P
1591912735.2,286047000.7,N
1591912755.1,286047001.1,N
1591912756.0,286047001.1,N
1591912775.8,286047002.8,Y
1591912795.7,286047000.7,P
